国际通讯卫星 510星 (INTELSAT 510)

导读

INTELSAT 510是国际通信卫星组织(ITSO)于1985年3月22日发射的第五代国际通信卫星。作为国际通信卫星系统的组成部分,该卫星主要为全球提供电话、电报、电视转播和数据传输等商用通信服务,支持跨国电信业务与海上移动通信,助力构建覆盖全球的早期商用卫星通信网络,在全球通信发展进程中发挥了重要作用。

Basic Information
目录编号:
15629
目录名称:
INTELSAT 510
国际标识:
1985-025A
轨道中心:
EARTH
卫星名称:
国际通讯卫星 510星
卫星全名:
国际通讯卫星 510星 (INTELSAT 510)
卫星状态:
在轨 (已飞行15103 天)
发射日期:
1985-03-22 UTC
国别 :
(ITSO)
星等 :
--
Orbit Information
数据来源 国际轨道数据 AOE轨道数据
星历时间 2026-07-28T12:03:46+0800
10小时前
查看轨道信息
2026-07-23T08:00:00+0800
5天前
查看轨道信息
半长轴 42731.757km 42732.279km
偏心率 0.0029973 0.0029917
轨道倾角 13.720° 13.724°
近地点辐角 22.282° 22.927°
升交点赤经 340.182° 340.217°
平近点角 338.064° 308.373°
近地点 36225.54km 36226.299km
远地点 36481.7km 36481.985km
周期 1465.163分钟 1465.190分钟
每日圈数 0.982826 0.982808
Detailed Information
卫星平台:
Intelsat V
平衡模式:
三轴稳定
覆盖范围:
全球
运营商:
国际卫星通信公司
运营商所在国:
美国
制造商(研发单位):
福特工程公司
制造商所在国:
美国
使用方式:
暂无
Satellite Introduction
从1965年4月至1984年3月,国际通信卫星组织发射了5代、6种不同性能的卫星共计35颗,除6颗卫星因运载火箭和远地点发动机故障而发射失败外,其余29颗卫星均被送到了预定的静止轨道位置。1984年8月前后,国际通信卫星组织利用部署在大西洋、太平洋、印度洋上空的15颗国际通信卫星,为遍布世界各地170多个国家或地区提供电话、电传、电报、电视和数据传输等电信业务;该卫星已退役。
2D Orbit Map
3D Orbit Map
Orbit Altitude Analysis Chart
Orbit Inclination Analysis Chart
Orbit Comprehensive Analysis Chart
View Comprehensive Chart